Weather History for KTIP - February, 2014

Change the Weather History Date:

Saturday, February 15, 2014

  Actual Average (KCMI) Record (KCMI)
Temperature  
Mean Temperature 8 °F 29 °F  
Max Temperature 23 °F 38 °F 63 °F (2005)
Min Temperature -7 °F 21 °F -9 °F (2007)
Degree Days  
Heating Degree Days 58 36  
Month to date heating degree days 563  
Since 1 July heating degree days 4073  
Cooling Degree Days 0 0  
Month to date cooling degree days 0  
Year to date cooling degree days 0  
Moisture  
Dew Point 5 °F    
Average Humidity 78    
Maximum Humidity 89    
Minimum Humidity 67    
Precipitation  
Precipitation 0.00 in 0.06 in 2.01 in (1949)
Month to date precipitation 1.10  
Year to date precipitation 3.15  
Sea Level Pressure  
Sea Level Pressure 30.05 in    
Wind  
Wind Speed 3 mph (West)    
Max Wind Speed 12 mph    
Max Gust Speed -    
Visibility 9 miles    
Events Snow    
T = Trace of Precipitation, MM = Missing Value Source: NWS Daily Summary

Daily Weather History Graph

Daily Weather History Graph

Search for Another Location

Airport or City:

Trip Planner

Search our weather history database for the weather conditions in past years. The results will help you decide how hot, cold, wet, or windy it might be!

Date:

Astronomy

Feb. 15, 2014 Rise Set
Actual Time 6:45 AM CST 5:28 PM CST
Civil Twilight 6:17 AM CST 5:56 PM CST
Nautical Twilight 5:46 AM CST 6:27 PM CST
Astronomical Twilight 5:14 AM CST 6:59 PM CST
Moon 6:28 PM CST (2/15) 6:44 AM CST (2/15)
Length of Visible Light 11h 38m
Length of Day
10h 42m
Waxing Gibbous, 99% of the Moon is Illuminated
Feb 15
Waxing Gibbous
Feb 22
Last Quarter
Mar 1
New
Mar 8
First Quarter
Mar 16
Full

Hourly Weather History & Observations

Time (CST) Temp. Windchill Dew Point Humidity Pressure Visibility Wind Dir Wind Speed Gust Speed Precip Events Conditions
12:15 AM 5.9 °F -5.8 °F 0.5 °F 78% 29.97 in 10.0 mi WNW 6.9 mph - N/A   Unknown
12:35 AM 4.5 °F -9.8 °F -0.4 °F 80% 29.97 in 10.0 mi WNW 9.2 mph - N/A   Unknown
12:55 AM 5.7 °F -9.1 °F 0.5 °F 79% 29.98 in 10.0 mi WNW 10.4 mph - N/A   Unknown
1:15 AM 5.4 °F -9.6 °F 0.1 °F 79% 29.99 in 10.0 mi WNW 10.4 mph - N/A   Unknown
1:55 AM 5.0 °F -10.0 °F -0.4 °F 78% 30.01 in 10.0 mi WNW 10.4 mph - N/A   Unknown
2:15 AM 2.3 °F -11.4 °F -2.6 °F 80% 30.02 in 10.0 mi WNW 8.1 mph - N/A   Unknown
2:35 AM 3.0 °F -12.5 °F -1.7 °F 81% 30.03 in 10.0 mi WNW 10.4 mph - N/A   Unknown
2:55 AM 2.8 °F -12.7 °F -2.2 °F 79% 30.04 in 10.0 mi NW 10.4 mph - N/A   Unknown
3:35 AM 2.7 °F - -2.6 °F 79% 30.05 in 10.0 mi Calm Calm - N/A   Unknown
3:55 AM 3.2 °F - -2.2 °F 78% 30.05 in 10.0 mi Calm Calm - N/A   Unknown
4:15 AM 3.7 °F - -1.3 °F 80% 30.05 in 10.0 mi Calm Calm - N/A   Unknown
4:35 AM 2.3 °F - -3.1 °F 78% 30.06 in 10.0 mi Calm Calm - N/A   Unknown
4:55 AM 1.2 °F - -3.6 °F 80% 30.06 in 10.0 mi Calm Calm - N/A   Unknown
5:15 AM 0.5 °F - -4.0 °F 81% 30.06 in 10.0 mi Calm Calm - N/A   Unknown
5:35 AM 0.1 °F - -4.2 °F 82% 30.06 in 10.0 mi Calm Calm - N/A   Unknown
5:55 AM -0.8 °F - -5.3 °F 81% 30.07 in 10.0 mi Calm Calm - N/A   Unknown
6:15 AM -0.9 °F - -5.4 °F 81% 30.07 in 10.0 mi Calm Calm - N/A   Unknown
6:35 AM -2.6 °F - -6.9 °F 82% 30.08 in 10.0 mi Calm Calm - N/A   Unknown
6:55 AM -3.3 °F - -7.6 °F 82% 30.07 in 7.0 mi Calm Calm - N/A   Unknown
7:35 AM -7.8 °F - -13.4 °F 77% 30.08 in 10.0 mi Calm Calm - N/A   Unknown
7:55 AM -2.0 °F - -6.3 °F 82% 30.10 in 7.0 mi Calm Calm - N/A   Unknown
8:15 AM 0.7 °F - -4.0 °F 81% 30.11 in 10.0 mi Calm Calm - N/A   Unknown
8:35 AM 3.0 °F - -1.8 °F 80% 30.11 in 10.0 mi Calm Calm - N/A   Unknown
9:15 AM 4.1 °F - -1.3 °F 78% 30.12 in 10.0 mi Calm Calm - N/A   Unknown
9:35 AM 5.9 °F - 0.1 °F 77% 30.13 in 10.0 mi Calm Calm - N/A   Unknown
9:55 AM 7.5 °F - 1.2 °F 75% 30.14 in 10.0 mi Calm Calm - N/A   Unknown
10:15 AM 8.8 °F - 2.3 °F 75% 30.13 in 10.0 mi Calm Calm - N/A   Unknown
10:35 AM 10.0 °F - 2.7 °F 72% 30.14 in 10.0 mi Calm Calm - N/A   Unknown
10:55 AM 11.3 °F - 3.2 °F 70% 30.14 in 10.0 mi Calm Calm - N/A   Unknown
11:15 AM 12.0 °F - 4.1 °F 71% 30.12 in 10.0 mi Calm Calm - N/A   Unknown
11:35 AM 13.3 °F - 4.8 °F 69% 30.12 in 10.0 mi Calm Calm - N/A   Unknown
11:55 AM 13.6 °F - 5.4 °F 70% 30.12 in 10.0 mi Calm Calm - N/A   Unknown
12:15 PM 14.4 °F - 6.4 °F 71% 30.10 in 10.0 mi Calm Calm - N/A   Unknown
12:35 PM 14.7 °F - 6.1 °F 69% 30.11 in 10.0 mi Calm Calm - N/A   Unknown
12:55 PM 14.7 °F - 7.2 °F 72% 30.09 in 10.0 mi Calm Calm - N/A   Unknown
1:15 PM 15.4 °F - 7.7 °F 71% 30.10 in 10.0 mi Calm Calm - N/A   Unknown
1:35 PM 16.5 °F - 8.4 °F 70% 30.10 in 10.0 mi Calm Calm - N/A   Unknown
1:55 PM 16.7 °F - 9.1 °F 72% 30.09 in 10.0 mi Calm Calm - N/A   Unknown
2:15 PM 17.4 °F - 8.6 °F 68% 30.07 in 10.0 mi Calm Calm - N/A   Unknown
2:35 PM 16.5 °F - 9.1 °F 73% 30.08 in 10.0 mi Calm Calm - N/A   Unknown
2:55 PM 17.8 °F 10.9 °F 8.6 °F 67% 30.09 in 10.0 mi SSW 4.6 mph - N/A   Unknown
3:15 PM 17.6 °F - 9.3 °F 70% 30.07 in 10.0 mi Calm Calm - N/A   Unknown
3:35 PM 16.5 °F - 8.8 °F 72% 30.06 in 10.0 mi Calm Calm - N/A   Unknown
3:55 PM 16.3 °F - 9.1 °F 73% 30.05 in 10.0 mi Calm Calm - N/A   Unknown
4:15 PM 16.5 °F - 9.5 °F 74% 30.04 in 10.0 mi Calm Calm - N/A   Unknown
4:35 PM 16.7 °F - 9.9 °F 74% 30.03 in 10.0 mi Calm Calm - N/A   Unknown
5:15 PM 17.8 °F - 11.3 °F 76% 30.03 in 10.0 mi Calm Calm - N/A   Unknown
5:55 PM 18.1 °F - 11.8 °F 76% 30.02 in 7.0 mi Calm Calm - N/A Snow Light Snow
6:15 PM 18.5 °F - 13.5 °F 81% 30.02 in 5.0 mi Calm Calm - N/A Snow Light Snow
6:35 PM 19.4 °F 10.4 °F 14.0 °F 80% 30.03 in 10.0 mi South 6.9 mph - N/A   Unknown
6:55 PM 19.4 °F 7.2 °F 14.9 °F 83% 30.03 in 1.8 mi South 11.5 mph - N/A Snow Light Snow
7:55 PM 19.2 °F - 15.8 °F 87% 30.01 in 1.5 mi Calm Calm - N/A Snow Light Snow
8:35 PM 20.1 °F - 16.7 °F 87% 29.99 in 4.0 mi Calm Calm - N/A Snow Light Snow
8:55 PM 20.3 °F - 17.2 °F 88% 29.99 in 7.0 mi Calm Calm - N/A   Unknown
9:15 PM 20.7 °F - 17.4 °F 87% 30.00 in 7.0 mi Calm Calm - N/A   Unknown
9:35 PM 21.0 °F - 17.6 °F 87% 29.99 in 7.0 mi Calm Calm - N/A   Unknown
9:55 PM 21.2 °F - 18.0 °F 87% 29.98 in 7.0 mi Calm Calm - N/A   Unknown
10:15 PM 21.2 °F - 18.3 °F 89% 29.98 in 7.0 mi Calm Calm - N/A   Unknown
10:35 PM 21.6 °F - 18.3 °F 87% 29.98 in 7.0 mi Calm Calm - N/A   Unknown
10:55 PM 21.9 °F - 18.5 °F 87% 29.97 in 7.0 mi Calm Calm - N/A   Unknown
11:15 PM 22.1 °F - 18.9 °F 87% 29.97 in 7.0 mi Calm Calm - N/A   Unknown
11:35 PM 22.6 °F - 19.4 °F 87% 29.97 in 7.0 mi Calm Calm - N/A   Unknown
11:55 PM 23.5 °F - 19.9 °F 86% 29.96 in 7.0 mi Calm Calm - N/A Snow Light Snow